Location: Heisede
(52.2582°N, 9.8523°E)
Time: 00:35:19
(UTC+00:00)

TIMED - Pass Details

Date: 13 January 2026
Orbit: 581 x 584 km, 74.1° (Epoch: 18 February)

Event Time Altitude Azimuth Distance (km) Brightness Sun altitude
Rises 05:47:38 0° 209° (SSW) 2,790 7.8 -14.1°
Reaches altitude 10° 05:49:51 10° 211° (SSW) 1,896 6.9 -13.8°
Maximum altitude 05:54:04 73° 296° (WNW) 614 4.3 -13.2°
Drops below altitude 10° 05:58:20 10° 22° (NNE) 1,912 7.1 -12.5°
Sets 06:00:34 0° 25° (NNE) 2,817 8.0 -12.2°
